Location: Espelette
(43.3402°N, 1.4474°W)
Time: 12:51:18
(UTC+00:00)

Exosat Rocket - Pass Details

Date: 19 May 2025
Orbit: 761 x 2512 km, 72.3° (Epoch: 12 June)

Event Time Altitude Azimuth Distance (km) Brightness Sun altitude
Rises 23:10:31 0° 341° (NNW) 3,316 8.1 -25.6°
Reaches altitude 10° 23:13:00 10° 348° (NNW) 2,323 7.0 -25.7°
Maximum altitude 23:17:51 47° 62° (ENE) 1,016 4.1 -25.9°
Enters shadow 23:18:33 44° 88° (E) 1,068 4.1 -25.9°
